| time (UTC) | temp F | wind direction | speed MPH | gust MPH | rain 1hr in | rain 24hr in | rain mn in | humidity % | barometer mb |
| 20260508164057 | 67 | 0 | 0.0 | 5.0 | 0.00 | 0.00 | 0.00 | 49 | 1017.3 |
| 20260508163556 | 67 | 0 | 2.0 | 5.0 | 0.00 | 0.00 | 0.00 | 46 | 1017.6 |
| 20260508163059 | 68 | 157 | 0.0 | 6.0 | 0.00 | 0.00 | 0.00 | 48 | 1017.8 |
| 20260508162557 | 67 | 0 | 1.0 | 8.0 | 0.00 | 0.00 | 0.00 | 48 | 1017.9 |
| 20260508162059 | 67 | 0 | 0.0 | 8.0 | 0.00 | 0.00 | 0.00 | 54 | 1018.1 |
| 20260508161559 | 67 | 249 | 0.0 | 2.0 | 0.00 | 0.00 | 0.00 | 49 | 1018.0 |
| 20260508161057 | 67 | 0 | 1.0 | 4.0 | 0.00 | 0.00 | 0.00 | 59 | 1018.1 |
| 20260508160556 | 66 | 0 | 0.0 | 4.0 | 0.00 | 0.00 | 0.00 | 52 | 1018.3 |
| 20260508160059 | 66 | 0 | 1.0 | 4.0 | 0.00 | 0.00 | 0.00 | 50 | 1018.2 |
| 20260508155557 | 66 | 163 | 0.0 | 6.0 | 0.00 | 0.00 | 0.00 | 49 | 1018.4 |
| 20260508155057 | 65 | 0 | 0.0 | 6.0 | 0.00 | 0.00 | 0.00 | 49 | 1018.4 |
| 20260508154600 | 65 | 352 | 1.0 | 4.0 | 0.00 | 0.00 | 0.00 | 54 | 1018.3 |
| 20260508154056 | 65 | 0 | 0.0 | 4.0 | 0.00 | 0.00 | 0.00 | 58 | 1018.3 |
| 20260508153557 | 65 | 227 | 1.0 | 4.0 | 0.00 | 0.00 | 0.00 | 54 | 1018.3 |
| 20260508153057 | 65 | 0 | 0.0 | 3.0 | 0.00 | 0.00 | 0.00 | 60 | 1018.4 |
| 20260508152558 | 65 | 0 | 0.0 | 2.0 | 0.00 | 0.00 | 0.00 | 59 | 1018.5 |
| 20260508152058 | 64 | 0 | 0.0 | 2.0 | 0.00 | 0.00 | 0.00 | 60 | 1018.6 |
| 20260508151558 | 64 | 0 | 0.0 | 2.0 | 0.00 | 0.00 | 0.00 | 56 | 1018.7 |
| 20260508151058 | 63 | 0 | 0.0 | 2.0 | 0.00 | 0.00 | 0.00 | 61 | 1018.7 |
| 20260508150559 | 63 | 0 | 0.0 | 3.0 | 0.00 | 0.00 | 0.00 | 65 | 1018.7 |
| 20260508150057 | 62 | 0 | 0.0 | 3.0 | 0.00 | 0.00 | 0.00 | 74 | 1018.6 |
| 20260508145558 | 61 | 0 | 0.0 | 3.0 | 0.00 | 0.00 | 0.00 | 73 | 1018.7 |
| 20260508145058 | 61 | 0 | 0.0 | 3.0 | 0.00 | 0.00 | 0.00 | 76 | 1018.8 |
| 20260508144558 | 60 | 0 | 0.0 | 2.0 | 0.00 | 0.00 | 0.00 | 80 | 1018.8 |
| 20260508144058 | 59 | 0 | 0.0 | 2.0 | 0.00 | 0.00 | 0.00 | 78 | 1018.8 |
| 20260508143602 | 59 | 0 | 0.0 | 2.0 | 0.00 | 0.00 | 0.00 | 78 | 1018.8 |
| 20260508143103 | 58 | 0 | 0.0 | 1.0 | 0.00 | 0.00 | 0.00 | 78 | 1018.8 |
| 20260508142557 | 57 | 0 | 0.0 | 2.0 | 0.00 | 0.00 | 0.00 | 81 | 1018.8 |
| 20260508142058 | 56 | 0 | 0.0 | 2.0 | 0.00 | 0.00 | 0.00 | 83 | 1018.9 |
| 20260508141558 | 56 | 0 | 0.0 | 0.0 | 0.00 | 0.00 | 0.00 | 87 | 1019.0 |
| 20260508141058 | 55 | 0 | 0.0 | 0.0 | 0.00 | 0.00 | 0.00 | 90 | 1018.9 |
| 20260508140557 | 54 | 0 | 0.0 | 0.0 | 0.00 | 0.00 | 0.00 | 93 | 1019.0 |
| 20260508135559 | 52 | 0 | 0.0 | 1.0 | 0.00 | 0.00 | 0.00 | 97 | 1019.0 |
| 20260508135058 | 52 | 0 | 0.0 | 1.0 | 0.00 | 0.00 | 0.00 | 97 | 1019.0 |
| 20260508134601 | 51 | 0 | 0.0 | 0.0 | 0.00 | 0.00 | 0.00 | 97 | 1019.0 |
| 20260508134058 | 51 | 0 | 0.0 | 0.0 | 0.00 | 0.00 | 0.00 | 98 | 1019.0 |
| 20260508133558 | 50 | 0 | 0.0 | 0.0 | 0.00 | 0.00 | 0.00 | 98 | 1018.8 |
| 20260508133112 | 50 | 0 | 0.0 | 0.0 | 0.00 | 0.00 | 0.00 | 98 | 1018.8 |
| 20260508132558 | 49 | 0 | 0.0 | 0.0 | 0.00 | 0.00 | 0.00 | 98 | 1018.8 |
| 20260508132058 | 49 | 0 | 0.0 | 0.0 | 0.00 | 0.00 | 0.00 | 99 | 1018.9 |
| 20260508131603 | 48 | 0 | 0.0 | 0.0 | 0.00 | 0.00 | 0.00 | 99 | 1018.8 |
| 20260508131058 | 48 | 0 | 0.0 | 0.0 | 0.00 | 0.00 | 0.00 | 99 | 1018.9 |
| 20260508130558 | 48 | 0 | 0.0 | 0.0 | 0.00 | 0.00 | 0.00 | 99 | 1019.1 |
| 20260508130110 | 47 | 0 | 0.0 | 0.0 | 0.00 | 0.00 | 0.00 | 99 | 1018.9 |
| 20260508125557 | 47 | 0 | 0.0 | 0.0 | 0.00 | 0.00 | 0.00 | 99 | 1018.9 |
| 20260508125059 | 47 | 0 | 0.0 | 0.0 | 0.00 | 0.00 | 0.00 | 98 | 1019.1 |
| 20260508124558 | 46 | 0 | 0.0 | 0.0 | 0.00 | 0.00 | 0.00 | 98 | 1019.2 |
| 20260508124058 | 46 | 0 | 0.0 | 0.0 | 0.00 | 0.00 | 0.00 | 98 | 1019.1 |
| 20260508123558 | 46 | 0 | 0.0 | 0.0 | 0.00 | 0.00 | 0.00 | 98 | 1019.1 |
| 20260508123108 | 45 | 0 | 0.0 | 0.0 | 0.00 | 0.00 | 0.00 | 98 | 1019.2 |
| 20260508122558 | 45 | 0 | 0.0 | 0.0 | 0.00 | 0.00 | 0.00 | 98 | 1019.1 |
| 20260508122101 | 45 | 0 | 0.0 | 0.0 | 0.00 | 0.00 | 0.00 | 98 | 1019.0 |
| 20260508121606 | 44 | 0 | 0.0 | 0.0 | 0.00 | 0.00 | 0.00 | 98 | 1018.8 |
| 20260508121057 | 44 | 0 | 0.0 | 0.0 | 0.00 | 0.00 | 0.00 | 98 | 1018.8 |
| 20260508120557 | 44 | 0 | 0.0 | 0.0 | 0.00 | 0.00 | 0.00 | 98 | 1018.7 |
| 20260508120059 | 43 | 0 | 0.0 | 0.0 | 0.00 | 0.00 | 0.00 | 98 | 1018.6 |
| 20260508115558 | 43 | 0 | 0.0 | 0.0 | 0.00 | 0.01 | 0.00 | 98 | 1018.6 |
| 20260508115057 | 43 | 0 | 0.0 | 0.0 | 0.00 | 0.01 | 0.00 | 98 | 1018.5 |
| 20260508114558 | 43 | 0 | 0.0 | 0.0 | 0.00 | 0.01 | 0.00 | 97 | 1018.4 |
| 20260508114057 | 43 | 0 | 0.0 | 0.0 | 0.00 | 0.01 | 0.00 | 97 | 1018.4 |
| 20260508113558 | 43 | 0 | 0.0 | 0.0 | 0.00 | 0.01 | 0.00 | 97 | 1018.2 |
| 20260508113107 | 43 | 0 | 0.0 | 0.0 | 0.00 | 0.01 | 0.00 | 97 | 1018.1 |
| 20260508112557 | 43 | 0 | 0.0 | 0.0 | 0.00 | 0.01 | 0.00 | 97 | 1017.9 |
| 20260508112058 | 42 | 0 | 0.0 | 0.0 | 0.00 | 0.01 | 0.00 | 97 | 1017.8 |
| 20260508111601 | 42 | 0 | 0.0 | 0.0 | 0.00 | 0.01 | 0.00 | 97 | 1017.7 |
| 20260508111102 | 42 | 0 | 0.0 | 0.0 | 0.00 | 0.01 | 0.00 | 97 | 1017.7 |
| 20260508110559 | 42 | 0 | 0.0 | 0.0 | 0.00 | 0.01 | 0.00 | 97 | 1017.6 |
| 20260508110104 | 42 | 0 | 0.0 | 0.0 | 0.00 | 0.01 | 0.00 | 97 | 1017.5 |
| 20260508105600 | 42 | 0 | 0.0 | 0.0 | 0.00 | 0.07 | 0.00 | 97 | 1017.5 |
| 20260508105058 | 43 | 0 | 0.0 | 1.0 | 0.00 | 0.07 | 0.00 | 97 | 1017.5 |
| 20260508104621 | 43 | 0 | 0.0 | 1.0 | 0.00 | 0.07 | 0.00 | 97 | 1017.4 |
| 20260508104101 | 43 | 0 | 0.0 | 1.0 | 0.00 | 0.07 | 0.00 | 97 | 1017.4 |
| 20260508103559 | 43 | 0 | 0.0 | 0.0 | 0.00 | 0.07 | 0.00 | 97 | 1017.2 |
| 20260508103058 | 43 | 0 | 0.0 | 0.0 | 0.00 | 0.07 | 0.00 | 97 | 1017.2 |
| 20260508102557 | 43 | 0 | 0.0 | 0.0 | 0.00 | 0.07 | 0.00 | 97 | 1017.2 |
| 20260508102058 | 43 | 0 | 0.0 | 0.0 | 0.00 | 0.07 | 0.00 | 97 | 1017.1 |
| 20260508101556 | 43 | 0 | 0.0 | 0.0 | 0.00 | 0.07 | 0.00 | 97 | 1016.9 |
| 20260508101058 | 43 | 0 | 0.0 | 0.0 | 0.00 | 0.07 | 0.00 | 97 | 1016.6 |
| 20260508100557 | 43 | 0 | 0.0 | 0.0 | 0.00 | 0.07 | 0.00 | 97 | 1016.7 |
| 20260508100057 | 43 | 0 | 0.0 | 0.0 | 0.00 | 0.07 | 0.00 | 97 | 1016.6 |
| 20260508095558 | 43 | 0 | 0.0 | 0.0 | 0.00 | 0.21 | 0.00 | 97 | 1016.6 |
| 20260508095058 | 43 | 0 | 0.0 | 0.0 | 0.00 | 0.21 | 0.00 | 97 | 1016.7 |
| 20260508094558 | 43 | 0 | 0.0 | 0.0 | 0.00 | 0.21 | 0.00 | 97 | 1016.8 |
| 20260508094101 | 44 | 0 | 0.0 | 0.0 | 0.00 | 0.21 | 0.00 | 97 | 1016.6 |
| 20260508093603 | 44 | 0 | 0.0 | 0.0 | 0.00 | 0.21 | 0.00 | 97 | 1016.6 |
| 20260508093100 | 44 | 0 | 0.0 | 0.0 | 0.00 | 0.21 | 0.00 | 97 | 1016.6 |
| 20260508092557 | 44 | 0 | 0.0 | 0.0 | 0.00 | 0.21 | 0.00 | 97 | 1016.6 |
| 20260508092101 | 44 | 0 | 0.0 | 0.0 | 0.00 | 0.21 | 0.00 | 97 | 1016.6 |
| 20260508091614 | 44 | 0 | 0.0 | 0.0 | 0.00 | 0.21 | 0.00 | 97 | 1016.6 |
| 20260508091059 | 44 | 0 | 0.0 | 0.0 | 0.00 | 0.21 | 0.00 | 97 | 1016.6 |
| 20260508090601 | 44 | 0 | 0.0 | 0.0 | 0.00 | 0.21 | 0.00 | 97 | 1016.5 |
| 20260508090109 | 44 | 0 | 0.0 | 0.0 | 0.00 | 0.21 | 0.00 | 97 | 1016.4 |
| 20260508085557 | 44 | 0 | 0.0 | 0.0 | 0.00 | 0.28 | 0.00 | 97 | 1016.3 |
| 20260508085057 | 45 | 0 | 0.0 | 0.0 | 0.00 | 0.28 | 0.00 | 97 | 1016.3 |
| 20260508084559 | 45 | 0 | 0.0 | 0.0 | 0.00 | 0.28 | 0.00 | 97 | 1016.3 |
| 20260508084058 | 45 | 0 | 0.0 | 0.0 | 0.00 | 0.28 | 0.00 | 97 | 1016.3 |
| 20260508083559 | 45 | 0 | 0.0 | 0.0 | 0.00 | 0.28 | 0.00 | 97 | 1016.3 |
| 20260508083111 | 45 | 0 | 0.0 | 0.0 | 0.00 | 0.28 | 0.00 | 97 | 1016.3 |
| 20260508082557 | 45 | 0 | 0.0 | 0.0 | 0.00 | 0.28 | 0.00 | 97 | 1016.3 |
| 20260508082057 | 45 | 0 | 0.0 | 0.0 | 0.00 | 0.28 | 0.00 | 97 | 1016.2 |
| 20260508081601 | 45 | 0 | 0.0 | 0.0 | 0.00 | 0.28 | 0.00 | 97 | 1016.3 |
| 20260508081100 | 45 | 0 | 0.0 | 0.0 | 0.00 | 0.28 | 0.00 | 97 | 1016.3 |
| 20260508080557 | 45 | 0 | 0.0 | 0.0 | 0.00 | 0.28 | 0.00 | 97 | 1016.3 |
| 20260508080109 | 45 | 0 | 0.0 | 0.0 | 0.00 | 0.28 | 0.00 | 96 | 1016.3 |
| 20260508075558 | 45 | 0 | 0.0 | 0.0 | 0.00 | 0.28 | 0.00 | 96 | 1016.2 |
| 20260508075100 | 45 | 0 | 0.0 | 0.0 | 0.00 | 0.28 | 0.00 | 96 | 1016.3 |
| 20260508074556 | 46 | 0 | 0.0 | 0.0 | 0.00 | 0.28 | 0.00 | 97 | 1016.3 |
| 20260508074058 | 46 | 0 | 0.0 | 0.0 | 0.00 | 0.28 | 0.00 | 97 | 1016.4 |
| 20260508073558 | 46 | 0 | 0.0 | 0.0 | 0.00 | 0.28 | 0.00 | 96 | 1016.4 |
| 20260508073059 | 46 | 0 | 0.0 | 0.0 | 0.00 | 0.28 | 0.00 | 96 | 1016.4 |
| 20260508072558 | 46 | 0 | 0.0 | 0.0 | 0.00 | 0.28 | 0.00 | 96 | 1016.4 |
| 20260508072058 | 46 | 0 | 0.0 | 0.0 | 0.00 | 0.28 | 0.00 | 96 | 1016.4 |
| 20260508071603 | 46 | 0 | 0.0 | 0.0 | 0.00 | 0.28 | 0.00 | 96 | 1016.4 |
| 20260508071057 | 46 | 0 | 0.0 | 0.0 | 0.00 | 0.28 | 0.00 | 96 | 1016.4 |
| 20260508070558 | 46 | 0 | 0.0 | 0.0 | 0.00 | 0.28 | 0.00 | 96 | 1016.6 |
| 20260508070141 | 46 | 0 | 0.0 | 0.0 | 0.00 | 0.28 | 0.00 | 96 | 1016.6 |
| 20260508065558 | 46 | 0 | 0.0 | 0.0 | 0.00 | 0.28 | 0.00 | 96 | 1016.5 |
| 20260508065057 | 46 | 0 | 0.0 | 0.0 | 0.00 | 0.28 | 0.00 | 96 | 1016.5 |
| 20260508064609 | 46 | 0 | 0.0 | 0.0 | 0.00 | 0.28 | 0.00 | 96 | 1016.6 |
| 20260508064059 | 47 | 0 | 0.0 | 0.0 | 0.00 | 0.28 | 0.00 | 96 | 1016.6 |
| 20260508063558 | 47 | 0 | 0.0 | 0.0 | 0.00 | 0.28 | 0.00 | 96 | 1016.6 |
| 20260508063101 | 47 | 0 | 0.0 | 0.0 | 0.00 | 0.28 | 0.00 | 96 | 1016.7 |
| 20260508062558 | 47 | 0 | 0.0 | 0.0 | 0.00 | 0.28 | 0.00 | 96 | 1016.8 |
| 20260508062058 | 47 | 0 | 0.0 | 0.0 | 0.00 | 0.28 | 0.00 | 96 | 1016.7 |
| 20260508061606 | 47 | 0 | 0.0 | 0.0 | 0.00 | 0.28 | 0.00 | 96 | 1016.9 |
| 20260508061100 | 47 | 0 | 0.0 | 0.0 | 0.00 | 0.28 | 0.00 | 96 | 1016.9 |
| 20260508060558 | 47 | 0 | 0.0 | 0.0 | 0.00 | 0.28 | 0.00 | 96 | 1017.0 |
| 20260508060100 | 48 | 0 | 0.0 | 0.0 | 0.00 | 0.28 | 0.00 | 96 | 1017.0 |
| 20260508055557 | 48 | 0 | 0.0 | 0.0 | 0.00 | 0.28 | 0.00 | 96 | 1016.9 |
| 20260508055057 | 48 | 0 | 0.0 | 0.0 | 0.00 | 0.28 | 0.00 | 96 | 1016.8 |
| 20260508054600 | 48 | 0 | 0.0 | 0.0 | 0.00 | 0.28 | 0.00 | 96 | 1016.8 |
| 20260508054057 | 48 | 0 | 0.0 | 0.0 | 0.00 | 0.28 | 0.00 | 96 | 1016.8 |
| 20260508053557 | 48 | 0 | 0.0 | 0.0 | 0.00 | 0.28 | 0.00 | 96 | 1016.8 |
| 20260508053107 | 48 | 0 | 0.0 | 0.0 | 0.00 | 0.28 | 0.00 | 96 | 1016.6 |
| 20260508052557 | 48 | 0 | 0.0 | 0.0 | 0.00 | 0.28 | 0.00 | 96 | 1016.6 |
| 20260508052057 | 48 | 0 | 0.0 | 0.0 | 0.00 | 0.28 | 0.00 | 96 | 1016.6 |
| 20260508051600 | 48 | 0 | 0.0 | 0.0 | 0.00 | 0.28 | 0.00 | 96 | 1016.5 |
| 20260508051101 | 48 | 0 | 0.0 | 0.0 | 0.00 | 0.28 | 0.00 | 96 | 1016.4 |
| 20260508050558 | 49 | 0 | 0.0 | 0.0 | 0.00 | 0.28 | 0.00 | 96 | 1016.4 |
| 20260508045557 | 49 | 0 | 0.0 | 0.0 | 0.00 | 0.39 | 0.00 | 96 | 1016.5 |
| 20260508045101 | 49 | 0 | 0.0 | 0.0 | 0.00 | 0.39 | 0.00 | 95 | 1016.4 |
| 20260508044558 | 49 | 0 | 0.0 | 0.0 | 0.00 | 0.39 | 0.00 | 96 | 1016.5 |
| 20260508044058 | 49 | 0 | 0.0 | 0.0 | 0.00 | 0.39 | 0.00 | 95 | 1016.4 |
| 20260508043557 | 49 | 0 | 0.0 | 0.0 | 0.00 | 0.39 | 0.00 | 95 | 1016.4 |
| 20260508043105 | 49 | 0 | 0.0 | 0.0 | 0.00 | 0.39 | 0.00 | 95 | 1016.4 |
| 20260508042557 | 49 | 0 | 0.0 | 0.0 | 0.00 | 0.39 | 0.00 | 95 | 1016.4 |
| 20260508042057 | 49 | 0 | 0.0 | 0.0 | 0.00 | 0.39 | 0.00 | 95 | 1016.4 |
| 20260508041558 | 49 | 0 | 0.0 | 0.0 | 0.00 | 0.39 | 0.00 | 95 | 1016.5 |
| 20260508041059 | 50 | 0 | 0.0 | 0.0 | 0.00 | 0.39 | 0.00 | 95 | 1016.4 |
| 20260508040558 | 50 | 0 | 0.0 | 0.0 | 0.00 | 0.39 | 0.00 | 95 | 1016.4 |
| 20260508040057 | 50 | 0 | 0.0 | 0.0 | 0.00 | 0.39 | 0.00 | 95 | 1016.4 |
| 20260508035600 | 50 | 0 | 0.0 | 0.0 | 0.00 | 0.47 | 0.39 | 94 | 1016.3 |
| 20260508035058 | 50 | 0 | 0.0 | 0.0 | 0.00 | 0.47 | 0.39 | 94 | 1016.2 |
| 20260508034556 | 50 | 0 | 0.0 | 0.0 | 0.00 | 0.47 | 0.39 | 94 | 1016.2 |
| 20260508034058 | 50 | 0 | 0.0 | 0.0 | 0.00 | 0.47 | 0.39 | 94 | 1016.3 |
| 20260508033557 | 51 | 0 | 0.0 | 0.0 | 0.00 | 0.47 | 0.39 | 94 | 1016.2 |
| 20260508033058 | 51 | 0 | 0.0 | 0.0 | 0.00 | 0.47 | 0.39 | 94 | 1016.3 |
| 20260508032558 | 51 | 0 | 0.0 | 0.0 | 0.00 | 0.47 | 0.39 | 94 | 1016.2 |
| 20260508032059 | 51 | 0 | 0.0 | 0.0 | 0.00 | 0.47 | 0.39 | 94 | 1016.1 |
| 20260508031600 | 51 | 0 | 0.0 | 0.0 | 0.00 | 0.47 | 0.39 | 94 | 1016.0 |
| 20260508031101 | 51 | 0 | 0.0 | 0.0 | 0.00 | 0.47 | 0.39 | 93 | 1016.1 |
| 20260508030557 | 51 | 0 | 0.0 | 0.0 | 0.00 | 0.47 | 0.39 | 93 | 1016.0 |
| 20260508030103 | 52 | 0 | 0.0 | 0.0 | 0.00 | 0.47 | 0.39 | 93 | 1016.0 |
| 20260508025557 | 52 | 0 | 0.0 | 0.0 | 0.00 | 0.52 | 0.39 | 93 | 1015.9 |
| 20260508025058 | 52 | 0 | 0.0 | 0.0 | 0.00 | 0.52 | 0.39 | 92 | 1015.8 |
| 20260508024601 | 52 | 0 | 0.0 | 0.0 | 0.00 | 0.52 | 0.39 | 92 | 1016.0 |
| 20260508024102 | 52 | 0 | 0.0 | 0.0 | 0.00 | 0.52 | 0.39 | 92 | 1015.9 |
| 20260508023558 | 52 | 0 | 0.0 | 0.0 | 0.00 | 0.52 | 0.39 | 92 | 1015.9 |
| 20260508023101 | 52 | 0 | 0.0 | 0.0 | 0.00 | 0.52 | 0.39 | 92 | 1015.9 |
| 20260508022601 | 53 | 0 | 0.0 | 0.0 | 0.00 | 0.52 | 0.39 | 92 | 1015.8 |
| 20260508022058 | 53 | 0 | 0.0 | 0.0 | 0.00 | 0.52 | 0.39 | 91 | 1015.8 |
| 20260508021609 | 53 | 0 | 0.0 | 0.0 | 0.00 | 0.52 | 0.39 | 91 | 1015.8 |
| 20260508021059 | 53 | 0 | 0.0 | 0.0 | 0.00 | 0.52 | 0.39 | 90 | 1015.8 |
| 20260508020602 | 53 | 0 | 0.0 | 0.0 | 0.00 | 0.52 | 0.39 | 90 | 1015.7 |
| 20260508020103 | 54 | 0 | 0.0 | 0.0 | 0.00 | 0.52 | 0.39 | 89 | 1015.5 |
| 20260508015558 | 54 | 0 | 0.0 | 0.0 | 0.00 | 0.52 | 0.39 | 89 | 1015.6 |
| 20260508015059 | 54 | 0 | 0.0 | 0.0 | 0.00 | 0.52 | 0.39 | 89 | 1015.7 |
| 20260508014558 | 55 | 0 | 0.0 | 0.0 | 0.00 | 0.52 | 0.39 | 89 | 1015.6 |
| 20260508014057 | 55 | 0 | 0.0 | 0.0 | 0.00 | 0.52 | 0.39 | 88 | 1015.6 |
| 20260508013558 | 55 | 0 | 0.0 | 0.0 | 0.00 | 0.52 | 0.39 | 89 | 1015.5 |
| 20260508013105 | 55 | 0 | 0.0 | 1.0 | 0.00 | 0.52 | 0.39 | 88 | 1015.3 |
| 20260508012558 | 55 | 0 | 0.0 | 2.0 | 0.00 | 0.52 | 0.39 | 88 | 1015.3 |
| 20260508012100 | 55 | 0 | 0.0 | 2.0 | 0.00 | 0.52 | 0.39 | 87 | 1015.3 |
| 20260508011600 | 56 | 0 | 0.0 | 2.0 | 0.00 | 0.52 | 0.39 | 87 | 1015.1 |
| 20260508011057 | 56 | 0 | 0.0 | 1.0 | 0.00 | 0.52 | 0.39 | 84 | 1015.1 |
| 20260508010557 | 56 | 0 | 0.0 | 2.0 | 0.00 | 0.52 | 0.39 | 82 | 1015.1 |
| 20260508010059 | 56 | 0 | 0.0 | 2.0 | 0.00 | 0.52 | 0.39 | 83 | 1015.0 |
| 20260508005557 | 57 | 0 | 0.0 | 0.0 | 0.00 | 0.54 | 0.39 | 82 | 1015.0 |
| 20260508005058 | 57 | 0 | 0.0 | 0.0 | 0.00 | 0.54 | 0.39 | 81 | 1014.8 |
| 20260508004601 | 58 | 0 | 0.0 | 0.0 | 0.00 | 0.54 | 0.39 | 80 | 1014.9 |
| 20260508004058 | 59 | 0 | 0.0 | 0.0 | 0.00 | 0.54 | 0.39 | 82 | 1014.6 |
| 20260508003600 | 59 | 0 | 0.0 | 0.0 | 0.00 | 0.54 | 0.39 | 81 | 1014.7 |
| 20260508003057 | 60 | 0 | 0.0 | 0.0 | 0.00 | 0.54 | 0.39 | 80 | 1014.6 |
| 20260508002557 | 60 | 0 | 0.0 | 0.0 | 0.00 | 0.54 | 0.39 | 78 | 1014.6 |
| 20260508002057 | 61 | 0 | 0.0 | 0.0 | 0.00 | 0.54 | 0.39 | 77 | 1014.7 |
| 20260508001557 | 61 | 0 | 0.0 | 0.0 | 0.00 | 0.54 | 0.39 | 75 | 1014.5 |
| 20260508001058 | 62 | 0 | 0.0 | 1.0 | 0.00 | 0.54 | 0.39 | 75 | 1014.3 |
| 20260508000558 | 62 | 0 | 0.0 | 2.0 | 0.00 | 0.54 | 0.39 | 75 | 1014.2 |
| 20260508000057 | 62 | 0 | 0.0 | 2.0 | 0.00 | 0.54 | 0.39 | 73 | 1014.3 |
| 20260507235557 | 63 | 0 | 0.0 | 2.0 | 0.00 | 0.98 | 0.39 | 75 | 1014.3 |
| 20260507235100 | 63 | 0 | 0.0 | 2.0 | 0.00 | 0.98 | 0.39 | 75 | 1014.3 |
| 20260507234600 | 63 | 0 | 0.0 | 1.0 | 0.00 | 0.98 | 0.39 | 75 | 1014.2 |
| 20260507234057 | 64 | 0 | 0.0 | 1.0 | 0.00 | 0.98 | 0.39 | 73 | 1014.1 |
| 20260507233557 | 64 | 0 | 0.0 | 1.0 | 0.00 | 0.98 | 0.39 | 72 | 1014.0 |
| 20260507233058 | 64 | 0 | 0.0 | 2.0 | 0.00 | 0.98 | 0.39 | 72 | 1013.9 |
| 20260507232601 | 64 | 0 | 0.0 | 2.0 | 0.00 | 0.98 | 0.39 | 68 | 1014.0 |
| 20260507232058 | 64 | 0 | 0.0 | 2.0 | 0.00 | 0.98 | 0.39 | 71 | 1014.1 |
| 20260507231558 | 64 | 0 | 0.0 | 2.0 | 0.00 | 0.98 | 0.39 | 73 | 1014.1 |
| 20260507231057 | 65 | 0 | 0.0 | 1.0 | 0.00 | 0.98 | 0.39 | 72 | 1014.0 |
| 20260507230558 | 65 | 0 | 0.0 | 2.0 | 0.00 | 0.98 | 0.39 | 72 | 1014.0 |
| 20260507230108 | 65 | 0 | 0.0 | 3.0 | 0.00 | 0.98 | 0.39 | 72 | 1013.9 |
| 20260507225558 | 66 | 0 | 0.0 | 6.0 | 0.00 | 1.25 | 0.39 | 71 | 1014.0 |
| 20260507225101 | 66 | 323 | 0.0 | 6.0 | 0.00 | 1.25 | 0.39 | 67 | 1013.9 |
| 20260507224601 | 66 | 0 | 1.0 | 6.0 | 0.00 | 1.25 | 0.39 | 66 | 1013.8 |
| 20260507224057 | 66 | 297 | 0.0 | 5.0 | 0.00 | 1.25 | 0.39 | 74 | 1013.9 |
| 20260507223557 | 66 | 159 | 0.0 | 1.0 | 0.00 | 1.25 | 0.39 | 74 | 1014.0 |
| 20260507223059 | 66 | 0 | 0.0 | 3.0 | 0.00 | 1.25 | 0.39 | 76 | 1013.9 |
| 20260507222557 | 66 | 0 | 0.0 | 4.0 | 0.00 | 1.25 | 0.39 | 78 | 1013.8 |
| 20260507222057 | 65 | 0 | 0.0 | 4.0 | 0.00 | 1.25 | 0.39 | 71 | 1014.0 |
| 20260507221601 | 66 | 0 | 0.0 | 3.0 | 0.00 | 1.25 | 0.39 | 79 | 1013.8 |
| 20260507221057 | 66 | 101 | 0.0 | 2.0 | 0.00 | 1.25 | 0.39 | 77 | 1013.9 |
| 20260507220557 | 66 | 0 | 0.0 | 0.0 | 0.00 | 1.25 | 0.39 | 77 | 1014.0 |
| 20260507220058 | 66 | 0 | 0.0 | 2.0 | 0.00 | 1.25 | 0.39 | 79 | 1013.9 |
| 20260507215558 | 66 | 0 | 0.0 | 2.0 | 0.00 | 1.26 | 0.39 | 74 | 1013.9 |
| 20260507215058 | 66 | 0 | 0.0 | 0.0 | 0.00 | 1.26 | 0.39 | 75 | 1013.9 |
| 20260507214558 | 66 | 0 | 0.0 | 0.0 | 0.00 | 1.26 | 0.39 | 75 | 1013.8 |
| 20260507214056 | 66 | 0 | 0.0 | 0.0 | 0.00 | 1.26 | 0.39 | 75 | 1013.8 |
| 20260507213558 | 66 | 0 | 0.0 | 1.0 | 0.00 | 1.26 | 0.39 | 79 | 1013.8 |
| 20260507213107 | 66 | 0 | 0.0 | 1.0 | 0.00 | 1.26 | 0.39 | 78 | 1013.9 |
| 20260507212557 | 66 | 0 | 0.0 | 1.0 | 0.00 | 1.26 | 0.39 | 78 | 1013.7 |
| 20260507212057 | 66 | 0 | 0.0 | 2.0 | 0.00 | 1.26 | 0.39 | 79 | 1013.7 |
| 20260507211606 | 66 | 0 | 0.0 | 2.0 | 0.00 | 1.26 | 0.39 | 79 | 1013.7 |
| 20260507211057 | 66 | 0 | 0.0 | 2.0 | 0.00 | 1.26 | 0.39 | 76 | 1013.7 |
| 20260507210558 | 66 | 0 | 0.0 | 3.0 | 0.00 | 1.26 | 0.39 | 74 | 1013.6 |
| 20260507210058 | 67 | 306 | 0.0 | 3.0 | 0.00 | 1.26 | 0.39 | 76 | 1013.7 |
| 20260507205557 | 67 | 0 | 0.0 | 4.0 | 0.00 | 1.27 | 0.39 | 75 | 1013.6 |
| 20260507205101 | 67 | 121 | 0.0 | 4.0 | 0.00 | 1.27 | 0.39 | 70 | 1013.6 |
| 20260507204602 | 68 | 0 | 0.0 | 6.0 | 0.00 | 1.27 | 0.39 | 70 | 1013.6 |
| 20260507204057 | 68 | 40 | 0.0 | 6.0 | 0.00 | 1.27 | 0.39 | 67 | 1013.5 |
| 20260507203557 | 68 | 270 | 1.0 | 4.0 | 0.00 | 1.27 | 0.39 | 67 | 1013.4 |
| 20260507203059 | 68 | 0 | 0.0 | 2.0 | 0.00 | 1.27 | 0.39 | 73 | 1013.2 |
| 20260507202556 | 68 | 0 | 0.0 | 2.0 | 0.00 | 1.27 | 0.39 | 74 | 1013.5 |
| 20260507202057 | 68 | 93 | 0.0 | 3.0 | 0.00 | 1.27 | 0.39 | 74 | 1013.6 |
| 20260507201605 | 67 | 270 | 0.0 | 4.0 | 0.00 | 1.27 | 0.39 | 77 | 1013.5 |
| 20260507201058 | 66 | 148 | 0.0 | 4.0 | 0.00 | 1.27 | 0.39 | 71 | 1013.5 |
| 20260507200558 | 66 | 0 | 0.0 | 2.0 | 0.00 | 1.27 | 0.39 | 71 | 1013.5 |
| 20260507200059 | 66 | 0 | 1.0 | 2.0 | 0.00 | 1.27 | 0.39 | 75 | 1013.5 |
| 20260507195559 | 67 | 94 | 1.0 | 3.0 | 0.00 | 1.45 | 0.39 | 74 | 1013.5 |
| 20260507195057 | 66 | 76 | 0.0 | 5.0 | 0.00 | 1.45 | 0.39 | 78 | 1013.6 |
| 20260507194603 | 66 | 0 | 0.0 | 5.0 | 0.00 | 1.45 | 0.39 | 72 | 1013.5 |
| 20260507194101 | 66 | 317 | 1.0 | 5.0 | 0.00 | 1.45 | 0.39 | 70 | 1013.5 |
| 20260507193600 | 66 | 200 | 0.0 | 3.0 | 0.00 | 1.45 | 0.39 | 71 | 1013.7 |
| 20260507193100 | 67 | 79 | 2.0 | 3.0 | 0.00 | 1.45 | 0.39 | 73 | 1013.6 |
| 20260507192557 | 66 | 0 | 0.0 | 4.0 | 0.00 | 1.45 | 0.39 | 74 | 1013.8 |
| 20260507192056 | 66 | 0 | 0.0 | 4.0 | 0.00 | 1.45 | 0.39 | 72 | 1013.8 |
| 20260507191615 | 66 | 0 | 1.0 | 6.0 | 0.00 | 1.45 | 0.39 | 71 | 1013.9 |
| 20260507191056 | 66 | 0 | 1.0 | 6.0 | 0.00 | 1.45 | 0.39 | 69 | 1013.9 |
| 20260507190556 | 66 | 225 | 1.0 | 4.0 | 0.00 | 1.45 | 0.39 | 70 | 1014.0 |
| 20260507190100 | 66 | 106 | 0.0 | 3.0 | 0.00 | 1.45 | 0.39 | 80 | 1013.9 |
| 20260507185557 | 65 | 0 | 1.0 | 6.0 | 0.00 | 1.86 | 0.39 | 77 | 1014.0 |
| 20260507185057 | 65 | 158 | 1.0 | 6.0 | 0.00 | 1.86 | 0.39 | 73 | 1014.0 |
| 20260507184608 | 65 | 271 | 0.0 | 2.0 | 0.00 | 1.86 | 0.39 | 72 | 1013.9 |
| 20260507184058 | 65 | 0 | 0.0 | 3.0 | 0.00 | 1.86 | 0.39 | 78 | 1014.0 |
| 20260507183557 | 65 | 194 | 0.0 | 3.0 | 0.00 | 1.86 | 0.39 | 74 | 1014.2 |
| 20260507183105 | 65 | 292 | 0.0 | 3.0 | 0.00 | 1.86 | 0.39 | 71 | 1014.2 |
| 20260507182600 | 65 | 0 | 0.0 | 6.0 | 0.00 | 1.86 | 0.39 | 68 | 1014.2 |
| 20260507182100 | 66 | 305 | 0.0 | 6.0 | 0.00 | 1.86 | 0.39 | 75 | 1014.2 |
| 20260507181603 | 65 | 130 | 2.0 | 5.0 | 0.00 | 1.86 | 0.39 | 70 | 1014.2 |
| 20260507181057 | 65 | 276 | 1.0 | 4.0 | 0.00 | 1.86 | 0.39 | 71 | 1014.0 |
| 20260507180558 | 65 | 0 | 0.0 | 2.0 | 0.00 | 1.86 | 0.39 | 78 | 1014.0 |
| 20260507175557 | 64 | 0 | 1.0 | 4.0 | 0.00 | 1.86 | 0.39 | 77 | 1014.3 |
| 20260507175100 | 64 | 0 | 1.0 | 5.0 | 0.00 | 1.86 | 0.39 | 82 | 1014.2 |
| 20260507174557 | 63 | 0 | 1.0 | 5.0 | 0.00 | 1.86 | 0.39 | 76 | 1014.3 |
| 20260507174101 | 63 | 296 | 0.0 | 5.0 | 0.00 | 1.86 | 0.39 | 74 | 1014.5 |
| 20260507173557 | 63 | 101 | 0.0 | 7.0 | 0.00 | 1.86 | 0.39 | 76 | 1014.6 |
| 20260507173109 | 63 | 153 | 1.0 | 7.0 | 0.00 | 1.86 | 0.39 | 81 | 1014.6 |
| 20260507172557 | 63 | 159 | 1.0 | 4.0 | 0.00 | 1.86 | 0.39 | 77 | 1014.6 |
| 20260507172058 | 63 | 0 | 1.0 | 5.0 | 0.00 | 1.86 | 0.39 | 84 | 1014.7 |
| 20260507171604 | 63 | 103 | 1.0 | 5.0 | 0.00 | 1.86 | 0.39 | 82 | 1014.6 |
| 20260507171058 | 63 | 0 | 1.0 | 4.0 | 0.00 | 1.86 | 0.39 | 78 | 1014.6 |
| 20260507170557 | 62 | 130 | 1.0 | 4.0 | 0.00 | 1.86 | 0.39 | 87 | 1014.5 |
| 20260507165557 | 61 | 299 | 0.0 | 4.0 | 0.00 | 1.86 | 0.39 | 82 | 1014.7 |
| 20260507165057 | 61 | 24 | 0.0 | 4.0 | 0.00 | 1.86 | 0.39 | 85 | 1014.6 |
| 20260507164624 | 61 | 331 | 1.0 | 4.0 | 0.00 | 1.86 | 0.39 | 83 | 1014.5 |